星链-5519 (STARLINK-5519 )

导读

STARLINK-5519是美国SpaceX公司星链(Starlink)互联网卫星星座的成员,于2023年7月7日发射升空,属于星链低轨卫星互联网组网任务。 星链星座旨在为全球偏远地区提供低延迟高速宽带互联网接入,这颗卫星运行在近地轨道,单颗质量约297kg,直径约2.8米,展开跨度约9米,当前运行高度约548公里,目前仍在轨服务,助力SpaceX扩展全球卫星互联网覆盖范围。

基本信息
目录编号:
57223
目录名称:
STARLINK-5519
国际标识:
2023-094F
轨道中心:
EARTH
卫星名称:
星链-5519
卫星全名:
星链-5519 (STARLINK-5519 )
卫星状态:
在轨 (已飞行1074 天)
发射日期:
2023-07-07 UTC
国别 :
美国 (US)
星等 :
--
轨道信息
数据来源 国际轨道数据 AOE轨道数据
星历时间 2026-06-15T03:47:27+0800
8小时前
查看轨道信息
2026-06-12T07:00:00+0800
3天前
查看轨道信息
半长轴 6861.19km 6861.181km
偏心率 0.0001389 0.0000047
轨道倾角 43.007° 43.005°
近地点辐角 276.388° 16.931°
升交点赤经 205.345° 221.527°
平近点角 83.682° 42.184°
近地点 482.099km 483.011km
远地点 484.007km 483.077km
周期 94.267分钟 94.267分钟
每日圈数 15.275787 15.27582
详细信息
固有亮度:
5
最大亮度:
2.4
卫星平台:
Starlink v1.5
覆盖范围:
全球
运营商:
太空探索技术公司
运营商所在国:
美国
制造商(研发单位):
太空探索技术公司
制造商所在国:
美国
使用方式:
暂无
卫星简介
星链(Starlink)计划是由太空探索技术公司(SpaceX)提出的一个巨型低轨卫星互联网星座项目,计划在2019年至2024年间在太空搭建由约1.2万颗卫星组成的“星链”网络,其中1584颗将部署在地球上空550千米处的近地轨道,并从2020年开始工作。该卫星仍在工作。
2D轨道图
3D轨道图
轨道高度分析图
轨道倾角分析图
轨道综合分析图
查看轨道综合分析图